• In Portugal
  • List of Countries
  • For 7 days
  • Water Temperature
  • Satellite Maps
  • Weather Map
  • Weather Widgets
  • user-avatar
    Login

    Hourly Weather Goiania

    Today, 23 August, Wednesday

    Time Temperature Precipitation Wind Pressure Humidity
    00:00 +26°C° 0 mm 4 mps 701 mmHg 46%
    01:00 +26°C° 0 mm 4 mps 701 mmHg 47%
    02:00 +25°C° 0 mm 5 mps 701 mmHg 48%
    03:00 +25°C° 0 mm 5 mps 701 mmHg 49%
    04:00 +23°C° 0 mm 5 mps 701 mmHg 52%
    05:00 +23°C° 0 mm 5 mps 701 mmHg 54%
    06:00 +22°C° 0 mm 5 mps 701 mmHg 57%
    07:00 +23°C° 0 mm 5 mps 702 mmHg 55%
    08:00 +24°C° 0 mm 6 mps 702 mmHg 52%
    09:00 +26°C° 0 mm 6 mps 703 mmHg 50%
    10:00 +27°C° 0 mm 6 mps 703 mmHg 45%
    11:00 +29°C° 0 mm 5 mps 703 mmHg 39%
    12:00 +32°C° 0 mm 5 mps 703 mmHg 34%
    13:00 +33°C° 0 mm 5 mps 702 mmHg 32%
    14:00 +33°C° 0 mm 5 mps 701 mmHg 30%
    15:00 +34°C° 0 mm 4 mps 700 mmHg 28%
    16:00 +33°C° 0 mm 4 mps 700 mmHg 30%
    17:00 +31°C° 0 mm 3 mps 700 mmHg 32%
    18:00 +29°C° 0 mm 3 mps 700 mmHg 34%
    19:00 +28°C° 0 mm 3 mps 700 mmHg 37%
    20:00 +27°C° 0 mm 3 mps 701 mmHg 39%
    21:00 +26°C° 0 mm 4 mps 701 mmHg 42%
    22:00 +26°C° 0 mm 4 mps 701 mmHg 44%
    23:00 +25°C° 0 mm 4 mps 701 mmHg 47%

    Tomorrow, 24 August, Thursday

    Time Temperature Precipitation Wind Pressure Humidity
    00:00 +24°C° 0 mm 3 mps 701 mmHg 49%
    01:00 +23°C° 0 mm 4 mps 701 mmHg 52%
    02:00 +22°C° 0 mm 4 mps 701 mmHg 54%
    03:00 +22°C° 0 mm 4 mps 700 mmHg 56%
    04:00 +21°C° 0 mm 4 mps 700 mmHg 59%
    05:00 +21°C° 0 mm 4 mps 701 mmHg 62%
    06:00 +20°C° 0 mm 4 mps 701 mmHg 65%
    07:00 +22°C° 0 mm 5 mps 701 mmHg 62%
    08:00 +23°C° 0 mm 5 mps 702 mmHg 59%
    09:00 +24°C° 0 mm 6 mps 703 mmHg 56%
    10:00 +27°C° 0 mm 5 mps 703 mmHg 48%
    11:00 +29°C° 0 mm 5 mps 703 mmHg 41%
    12:00 +32°C° 0 mm 5 mps 703 mmHg 34%
    13:00 +33°C° 0 mm 4 mps 702 mmHg 31%
    14:00 +34°C° 0 mm 4 mps 701 mmHg 28%
    15:00 +34°C° 0 mm 3 mps 700 mmHg 25%
    16:00 +33°C° 0 mm 3 mps 700 mmHg 28%
    17:00 +31°C° 0 mm 3 mps 700 mmHg 31%
    18:00 +29°C° 0 mm 2 mps 699 mmHg 33%
    19:00 +28°C° 0 mm 3 mps 700 mmHg 36%
    20:00 +27°C° 0 mm 3 mps 700 mmHg 38%
    21:00 +26°C° 0 mm 3 mps 701 mmHg 41%
    22:00 +26°C° 0 mm 4 mps 701 mmHg 43%
    23:00 +25°C° 0 mm 4 mps 701 mmHg 45%

    Day after tomorrow, 25 August, Friday

    Time Temperature Precipitation Wind Pressure Humidity
    00:00 +25°C° 0 mm 4 mps 701 mmHg 47%
    01:00 +23°C° 0 mm 5 mps 701 mmHg 50%
    02:00 +23°C° 0 mm 5 mps 700 mmHg 52%
    03:00 +22°C° 0 mm 5 mps 700 mmHg 55%
    04:00 +22°C° 0 mm 5 mps 700 mmHg 57%
    05:00 +21°C° 0 mm 5 mps 700 mmHg 59%
    06:00 +21°C° 0 mm 4 mps 700 mmHg 60%
    07:00 +22°C° 0 mm 5 mps 701 mmHg 58%
    08:00 +23°C° 0 mm 5 mps 702 mmHg 55%
    09:00 +25°C° 0 mm 5 mps 703 mmHg 52%
    10:00 +27°C° 0 mm 5 mps 702 mmHg 45%
    11:00 +29°C° 0 mm 4 mps 702 mmHg 38%
    12:00 +32°C° 0 mm 4 mps 702 mmHg 31%
    13:00 +33°C° 0 mm 3 mps 701 mmHg 28%
    14:00 +34°C° 0 mm 3 mps 701 mmHg 25%
    15:00 +34°C° 0 mm 3 mps 700 mmHg 23%
    16:00 +32°C° 0 mm 2 mps 700 mmHg 25%
    17:00 +31°C° 0 mm 2 mps 699 mmHg 28%
    18:00 +29°C° 0 mm 2 mps 699 mmHg 30%
    19:00 +28°C° 0 mm 3 mps 700 mmHg 33%
    20:00 +27°C° 0 mm 3 mps 700 mmHg 36%
    21:00 +26°C° 0 mm 3 mps 701 mmHg 39%
    22:00 +26°C° 0 mm 4 mps 701 mmHg 41%
    23:00 +25°C° 0 mm 4 mps 701 mmHg 42%

    26 August, Saturday

    Time Temperature Precipitation Wind Pressure Humidity
    00:00 +25°C° 0 mm 4 mps 701 mmHg 44%
    01:00 +23°C° 0 mm 4 mps 700 mmHg 46%
    02:00 +23°C° 0 mm 4 mps 700 mmHg 47%
    03:00 +22°C° 0 mm 4 mps 699 mmHg 49%
    04:00 +22°C° 0 mm 4 mps 700 mmHg 51%
    05:00 +21°C° 0 mm 4 mps 700 mmHg 52%
    06:00 +21°C° 0 mm 4 mps 700 mmHg 54%
    07:00 +22°C° 0 mm 4 mps 701 mmHg 51%
    08:00 +23°C° 0 mm 4 mps 702 mmHg 48%
    09:00 +26°C° 0 mm 4 mps 702 mmHg 45%
    10:00 +28°C° 0 mm 4 mps 702 mmHg 39%
    11:00 +30°C° 0 mm 3 mps 702 mmHg 33%
    12:00 +34°C° 0 mm 2 mps 702 mmHg 26%
    13:00 +34°C° 0 mm 2 mps 701 mmHg 24%
    14:00 +35°C° 0 mm 2 mps 701 mmHg 23%
    15:00 +35°C° 0 mm 3 mps 700 mmHg 21%
    16:00 +34°C° 0 mm 2 mps 700 mmHg 22%
    17:00 +31°C° 0 mm 2 mps 700 mmHg 24%
    18:00 +30°C° 0 mm 2 mps 699 mmHg 26%
    19:00 +28°C° 0 mm 2 mps 700 mmHg 27%
    20:00 +27°C° 0 mm 2 mps 700 mmHg 29%
    21:00 +26°C° 0 mm 2 mps 700 mmHg 30%
    22:00 +25°C° 0 mm 3 mps 700 mmHg 32%
    23:00 +25°C° 0 mm 3 mps 700 mmHg 34%

    27 August, Sunday

    Time Temperature Precipitation Wind Pressure Humidity
    00:00 +24°C° 0 mm 3 mps 700 mmHg 36%
    01:00 +22°C° 0 mm 3 mps 700 mmHg 37%
    02:00 +22°C° 0 mm 3 mps 700 mmHg 37%
    03:00 +21°C° 0 mm 2 mps 699 mmHg 38%
    04:00 +21°C° 0 mm 3 mps 699 mmHg 38%
    05:00 +21°C° 0 mm 3 mps 700 mmHg 37%
    06:00 +20°C° 0 mm 3 mps 700 mmHg 37%
    07:00 +22°C° 0 mm 4 mps 700 mmHg 36%
    08:00 +23°C° 0 mm 4 mps 701 mmHg 34%
    09:00 +26°C° 0 mm 4 mps 701 mmHg 33%
    10:00 +28°C° 0 mm 4 mps 701 mmHg 29%
    11:00 +30°C° 0 mm 3 mps 701 mmHg 24%
    12:00 +33°C° 0 mm 3 mps 701 mmHg 20%
    13:00 +34°C° 0 mm 2 mps 700 mmHg 18%
    14:00 +35°C° 0 mm 2 mps 700 mmHg 17%
    15:00 +35°C° 0 mm 2 mps 699 mmHg 15%
    16:00 +34°C° 0 mm 2 mps 699 mmHg 17%
    17:00 +31°C° 0 mm 2 mps 699 mmHg 19%
    18:00 +29°C° 0 mm 2 mps 699 mmHg 21%
    19:00 +28°C° 0 mm 2 mps 699 mmHg 23%
    20:00 +27°C° 0 mm 2 mps 699 mmHg 25%
    21:00 +25°C° 0 mm 2 mps 700 mmHg 27%
    22:00 +25°C° 0 mm 3 mps 700 mmHg 30%
    23:00 +25°C° 0 mm 3 mps 700 mmHg 32%

    28 August, Monday

    Time Temperature Precipitation Wind Pressure Humidity
    00:00 +24°C° 0 mm 3 mps 700 mmHg 35%
    01:00 +24°C° 0 mm 3 mps 699 mmHg 36%
    02:00 +22°C° 0 mm 3 mps 699 mmHg 38%
    03:00 +22°C° 0 mm 3 mps 699 mmHg 40%
    04:00 +21°C° 0 mm 3 mps 699 mmHg 40%
    05:00 +21°C° 0 mm 3 mps 699 mmHg 41%
    06:00 +21°C° 0 mm 4 mps 699 mmHg 41%
    07:00 +22°C° 0 mm 4 mps 700 mmHg 39%
    08:00 +25°C° 0 mm 4 mps 701 mmHg 36%
    09:00 +26°C° 0 mm 5 mps 702 mmHg 34%
    10:00 +29°C° 0 mm 4 mps 701 mmHg 29%
    11:00 +31°C° 0 mm 3 mps 701 mmHg 24%
    12:00 +34°C° 0 mm 3 mps 701 mmHg 20%
    13:00 +35°C° 0 mm 2 mps 701 mmHg 18%
    14:00 +35°C° 0 mm 2 mps 700 mmHg 16%
    15:00 +36°C° 0 mm 2 mps 699 mmHg 15%
    16:00 +34°C° 0 mm 2 mps 699 mmHg 17%
    17:00 +31°C° 0 mm 2 mps 699 mmHg 18%
    18:00 +30°C° 0 mm 2 mps 699 mmHg 20%
    19:00 +29°C° 0 mm 2 mps 699 mmHg 22%
    20:00 +27°C° 0 mm 2 mps 699 mmHg 24%
    21:00 +26°C° 0 mm 3 mps 700 mmHg 26%
    22:00 +25°C° 0 mm 3 mps 700 mmHg 29%
    23:00 +25°C° 0 mm 3 mps 700 mmHg 31%
    Show more